contact:dominique.lefevre@mio.osupytheas.fr, maurice.libes@osupytheas.fr, didier.mallarino@osupytheas.fr
Project:EMSO http://www.emso-fr.org/EMSO-France
Depth: 2436.0 m
Title:EMSO Ligure Ouest : Data MII capteur MICROCAT
DateTime_Computer,Latitude,Longitude,Temperature,Conductivity,Pressure,DateTime_Instrument
DateTime_Computer,Latitude,Longitude,degC,S m-1,dbar,DateTime_Instrument
2023-06-03T00:02:57Z,42.805,6.029,13.3053,4.60138,2470.646,2023-6-03T02:05:10Z
2023-06-03T00:06:00Z,42.805,6.029,13.3060,4.60152,2470.637,2023-6-03T02:08:13Z
2023-06-03T00:09:03Z,42.805,6.029,13.3070,4.60142,2470.624,2023-6-03T02:11:16Z
2023-06-03T00:12:06Z,42.805,6.029,13.3076,4.60112,2470.646,2023-6-03T02:14:20Z
2023-06-03T00:15:10Z,42.805,6.029,13.3079,4.60175,2470.646,2023-6-03T02:17:23Z
2023-06-03T00:18:13Z,42.805,6.029,13.3072,4.60150,2470.6,2023-6-03T02:20:26Z
2023-06-03T00:21:16Z,42.805,6.029,13.3093,4.60140,2470.624,2023-6-03T02:23:29Z
2023-06-03T00:24:19Z,42.805,6.029,13.3082,4.60135,2470.624,2023-6-03T02:26:32Z
2023-06-03T00:27:22Z,42.805,6.029,13.3063,4.60176,2470.67,2023-6-03T02:29:35Z
2023-06-03T00:30:25Z,42.805,6.029,13.3093,4.60132,2470.646,2023-6-03T02:32:38Z
2023-06-03T00:33:28Z,42.805,6.029,13.3093,4.60122,2470.637,2023-6-03T02:35:41Z
2023-06-03T00:36:31Z,42.805,6.029,13.3085,4.60111,2470.624,2023-6-03T02:38:44Z
2023-06-03T00:39:34Z,42.805,6.029,13.3062,4.60105,2470.614,2023-6-03T02:41:47Z
2023-06-03T00:42:37Z,42.805,6.029,13.3066,4.60125,2470.614,2023-6-03T02:44:50Z
2023-06-03T00:45:40Z,42.805,6.029,13.3060,4.60150,2470.637,2023-6-03T02:47:53Z
2023-06-03T00:48:43Z,42.805,6.029,13.3073,4.60157,2470.637,2023-6-03T02:50:56Z
2023-06-03T00:51:46Z,42.805,6.029,13.3086,4.60143,2470.624,2023-6-03T02:54:00Z
2023-06-03T00:54:50Z,42.805,6.029,13.3105,4.60116,2470.6,2023-6-03T02:57:03Z
2023-06-03T00:57:53Z,42.805,6.029,13.3100,4.60117,2470.646,2023-6-03T03:00:06Z
2023-06-03T01:00:56Z,42.805,6.029,13.3090,4.60131,2470.6,2023-6-03T03:03:09Z
2023-06-03T01:03:59Z,42.805,6.029,13.3096,4.60121,2470.637,2023-6-03T03:06:12Z
2023-06-03T01:07:02Z,42.805,6.029,13.3096,4.60122,2470.637,2023-6-03T03:09:15Z
2023-06-03T01:10:05Z,42.805,6.029,13.3103,4.60127,2470.646,2023-6-03T03:12:18Z
2023-06-03T01:13:08Z,42.805,6.029,13.3091,4.60152,2470.661,2023-6-03T03:15:21Z
2023-06-03T01:16:11Z,42.805,6.029,13.3093,4.60108,2470.661,2023-6-03T03:18:24Z
2023-06-03T01:19:14Z,42.805,6.029,13.3089,4.60107,2470.684,2023-6-03T03:21:27Z
2023-06-03T01:22:17Z,42.805,6.029,13.3100,4.60114,2470.637,2023-6-03T03:24:30Z
2023-06-03T01:25:20Z,42.805,6.029,13.3084,4.60126,2470.624,2023-6-03T03:27:33Z
2023-06-03T01:28:23Z,42.805,6.029,13.3063,4.60123,2470.624,2023-6-03T03:30:36Z
2023-06-03T01:31:26Z,42.805,6.029,13.3070,4.60125,2470.661,2023-6-03T03:33:40Z
2023-06-03T01:34:30Z,42.805,6.029,13.3073,4.60102,2470.624,2023-6-03T03:36:43Z
2023-06-03T01:37:33Z,42.805,6.029,13.3105,4.60107,2470.646,2023-6-03T03:39:46Z
2023-06-03T01:40:36Z,42.805,6.029,13.3083,4.60119,2470.661,2023-6-03T03:42:49Z
2023-06-03T01:43:39Z,42.805,6.029,13.3083,4.60120,2470.646,2023-6-03T03:45:52Z
2023-06-03T01:46:42Z,42.805,6.029,13.3063,4.60119,2470.661,2023-6-03T03:48:55Z
2023-06-03T01:49:45Z,42.805,6.029,13.3068,4.60110,2470.661,2023-6-03T03:51:58Z
2023-06-03T01:52:48Z,42.805,6.029,13.3075,4.60102,2470.614,2023-6-03T03:55:01Z
2023-06-03T01:55:51Z,42.805,6.029,13.3078,4.60120,2470.646,2023-6-03T03:58:04Z
2023-06-03T01:58:54Z,42.805,6.029,13.3078,4.60114,2470.646,2023-6-03T04:01:07Z
2023-06-03T02:01:57Z,42.805,6.029,13.3077,4.60117,2470.624,2023-6-03T04:04:10Z
2023-06-03T02:05:00Z,42.805,6.029,13.3078,4.60117,2470.637,2023-6-03T04:07:13Z
2023-06-03T02:08:03Z,42.805,6.029,13.3078,4.60109,2470.646,2023-6-03T04:10:16Z
2023-06-03T02:11:06Z,42.805,6.029,13.3082,4.60117,2470.624,2023-6-03T04:13:20Z
2023-06-03T02:14:10Z,42.805,6.029,13.3078,4.60126,2470.661,2023-6-03T04:16:23Z
2023-06-03T02:17:13Z,42.805,6.029,13.3074,4.60110,2470.661,2023-6-03T04:19:26Z
2023-06-03T02:20:16Z,42.805,6.029,13.3071,4.60127,2470.646,2023-6-03T04:22:29Z
2023-06-03T02:23:19Z,42.805,6.029,13.3069,4.60134,2470.661,2023-6-03T04:25:32Z
2023-06-03T02:26:22Z,42.805,6.029,13.3056,4.60137,2470.646,2023-6-03T04:28:35Z
2023-06-03T02:29:25Z,42.805,6.029,13.3066,4.60134,2470.661,2023-6-03T04:31:38Z
2023-06-03T02:32:28Z,42.805,6.029,13.3060,4.60117,2470.67,2023-6-03T04:34:41Z
2023-06-03T02:35:31Z,42.805,6.029,13.3067,4.60121,2470.646,2023-6-03T04:37:44Z
2023-06-03T02:38:34Z,42.805,6.029,13.3062,4.60094,2470.661,2023-6-03T04:40:47Z
2023-06-03T02:41:37Z,42.805,6.029,13.3067,4.60105,2470.661,2023-6-03T04:43:50Z
2023-06-03T02:44:40Z,42.805,6.029,13.3065,4.60126,2470.637,2023-6-03T04:46:53Z
2023-06-03T02:47:43Z,42.805,6.029,13.3070,4.60109,2470.646,2023-6-03T04:49:57Z
2023-06-03T02:50:47Z,42.805,6.029,13.3067,4.60108,2470.661,2023-6-03T04:53:00Z
2023-06-03T02:53:50Z,42.805,6.029,13.3084,4.60125,2470.646,2023-6-03T04:56:03Z
2023-06-03T02:56:53Z,42.805,6.029,13.3088,4.60158,2470.684,2023-6-03T04:59:06Z
2023-06-03T02:59:56Z,42.805,6.029,13.3067,4.60135,2470.67,2023-6-03T05:02:09Z
2023-06-03T03:02:59Z,42.805,6.029,13.3091,4.60106,2470.684,2023-6-03T05:05:12Z
2023-06-03T03:06:02Z,42.805,6.029,13.3070,4.60107,2470.67,2023-6-03T05:08:15Z
2023-06-03T03:09:05Z,42.805,6.029,13.3079,4.60094,2470.67,2023-6-03T05:11:18Z
2023-06-03T03:12:08Z,42.805,6.029,13.3064,4.60097,2470.684,2023-6-03T05:14:21Z
2023-06-03T03:15:11Z,42.805,6.029,13.3082,4.60093,2470.707,2023-6-03T05:17:24Z
2023-06-03T03:18:14Z,42.805,6.029,13.3073,4.60132,2470.67,2023-6-03T05:20:27Z
2023-06-03T03:21:17Z,42.805,6.029,13.3076,4.60117,2470.684,2023-6-03T05:23:30Z
2023-06-03T03:24:20Z,42.805,6.029,13.3095,4.60111,2470.67,2023-6-03T05:26:33Z
2023-06-03T03:27:23Z,42.805,6.029,13.3082,4.60141,2470.707,2023-6-03T05:29:37Z
2023-06-03T03:30:27Z,42.805,6.029,13.3079,4.60140,2470.684,2023-6-03T05:32:40Z
2023-06-03T03:33:30Z,42.805,6.029,13.3080,4.60114,2470.707,2023-6-03T05:35:43Z
2023-06-03T03:36:33Z,42.805,6.029,13.3056,4.60151,2470.684,2023-6-03T05:38:46Z
2023-06-03T03:39:36Z,42.805,6.029,13.3061,4.60101,2470.693,2023-6-03T05:41:49Z
2023-06-03T03:42:39Z,42.805,6.029,13.3047,4.60108,2470.707,2023-6-03T05:44:52Z
2023-06-03T03:45:42Z,42.805,6.029,13.3061,4.60097,2470.684,2023-6-03T05:47:55Z
2023-06-03T03:48:45Z,42.805,6.029,13.3083,4.60116,2470.717,2023-6-03T05:50:58Z
2023-06-03T03:51:48Z,42.805,6.029,13.3068,4.60145,2470.707,2023-6-03T05:54:01Z
2023-06-03T03:54:51Z,42.805,6.029,13.3078,4.60162,2470.754,2023-6-03T05:57:04Z
2023-06-03T03:57:54Z,42.805,6.029,13.3065,4.60150,2470.707,2023-6-03T06:00:07Z
2023-06-03T04:00:57Z,42.805,6.029,13.3060,4.60145,2470.707,2023-6-03T06:03:10Z
2023-06-03T04:04:00Z,42.805,6.029,13.3065,4.60118,2470.717,2023-6-03T06:06:13Z
2023-06-03T04:07:03Z,42.805,6.029,13.3092,4.60155,2470.73,2023-6-03T06:09:16Z
2023-06-03T04:10:06Z,42.805,6.029,13.3056,4.60164,2470.74,2023-6-03T06:12:20Z
2023-06-03T04:13:10Z,42.805,6.029,13.3060,4.60137,2470.73,2023-6-03T06:15:23Z
2023-06-03T04:16:13Z,42.805,6.029,13.3085,4.60115,2470.717,2023-6-03T06:18:26Z
2023-06-03T04:19:16Z,42.805,6.029,13.3077,4.60125,2470.74,2023-6-03T06:21:29Z
2023-06-03T04:22:19Z,42.805,6.029,13.3083,4.60114,2470.754,2023-6-03T06:24:32Z
2023-06-03T04:25:22Z,42.805,6.029,13.3073,4.60108,2470.73,2023-6-03T06:27:35Z
2023-06-03T04:28:25Z,42.805,6.029,13.3070,4.60106,2470.763,2023-6-03T06:30:38Z
2023-06-03T04:31:28Z,42.805,6.029,13.3075,4.60112,2470.754,2023-6-03T06:33:41Z
2023-06-03T04:34:31Z,42.805,6.029,13.3068,4.60135,2470.717,2023-6-03T06:36:44Z
2023-06-03T04:37:34Z,42.805,6.029,13.3073,4.60129,2470.74,2023-6-03T06:39:47Z
2023-06-03T04:40:37Z,42.805,6.029,13.3081,4.60126,2470.754,2023-6-03T06:42:50Z
2023-06-03T04:43:40Z,42.805,6.029,13.3097,4.60112,2470.74,2023-6-03T06:45:53Z
2023-06-03T04:46:43Z,42.805,6.029,13.3060,4.60113,2470.74,2023-6-03T06:48:57Z
2023-06-03T04:49:47Z,42.805,6.029,13.3102,4.60108,2470.74,2023-6-03T06:52:00Z
2023-06-03T04:52:50Z,42.805,6.029,13.3071,4.60112,2470.74,2023-6-03T06:55:03Z
2023-06-03T04:55:53Z,42.805,6.029,13.3067,4.60119,2470.754,2023-6-03T06:58:06Z
2023-06-03T04:58:56Z,42.805,6.029,13.3079,4.60128,2470.717,2023-6-03T07:01:09Z
2023-06-03T05:01:59Z,42.805,6.029,13.3088,4.60143,2470.763,2023-6-03T07:04:12Z
2023-06-03T05:05:02Z,42.805,6.029,13.3075,4.60135,2470.74,2023-6-03T07:07:15Z
2023-06-03T05:08:05Z,42.805,6.029,13.3080,4.60109,2470.754,2023-6-03T07:10:18Z
2023-06-03T05:11:08Z,42.805,6.029,13.3080,4.60119,2470.754,2023-6-03T07:13:21Z
2023-06-03T05:14:11Z,42.805,6.029,13.3081,4.60117,2470.754,2023-6-03T07:16:24Z
2023-06-03T05:17:14Z,42.805,6.029,13.3089,4.60114,2470.777,2023-6-03T07:19:27Z
2023-06-03T05:20:17Z,42.805,6.029,13.3074,4.60129,2470.8,2023-6-03T07:22:30Z
2023-06-03T05:23:20Z,42.805,6.029,13.3069,4.60112,2470.763,2023-6-03T07:25:33Z
2023-06-03T05:26:23Z,42.805,6.029,13.3092,4.60117,2470.74,2023-6-03T07:28:37Z
2023-06-03T05:29:27Z,42.805,6.029,13.3087,4.60129,2470.74,2023-6-03T07:31:40Z
2023-06-03T05:32:30Z,42.805,6.029,13.3100,4.60125,2470.787,2023-6-03T07:34:43Z
2023-06-03T05:35:33Z,42.805,6.029,13.3081,4.60112,2470.754,2023-6-03T07:37:46Z
2023-06-03T05:38:36Z,42.805,6.029,13.3093,4.60124,2470.8,2023-6-03T07:40:49Z
2023-06-03T05:41:39Z,42.805,6.029,13.3093,4.60129,2470.787,2023-6-03T07:43:52Z
2023-06-03T05:44:42Z,42.805,6.029,13.3089,4.60108,2470.754,2023-6-03T07:46:55Z
2023-06-03T05:47:45Z,42.805,6.029,13.3098,4.60109,2470.754,2023-6-03T07:49:58Z
2023-06-03T05:50:48Z,42.805,6.029,13.3098,4.60104,2470.777,2023-6-03T07:53:01Z
2023-06-03T05:53:51Z,42.805,6.029,13.3089,4.60110,2470.763,2023-6-03T07:56:04Z
2023-06-03T05:56:54Z,42.805,6.029,13.3088,4.60137,2470.8,2023-6-03T07:59:07Z
2023-06-03T05:59:57Z,42.805,6.029,13.3087,4.60116,2470.777,2023-6-03T08:02:10Z
2023-06-03T06:03:00Z,42.805,6.029,13.3078,4.60129,2470.777,2023-6-03T08:05:14Z
2023-06-03T06:06:03Z,42.805,6.029,13.3068,4.60107,2470.787,2023-6-03T08:08:17Z
2023-06-03T06:09:07Z,42.805,6.029,13.3106,4.60099,2470.8,2023-6-03T08:11:20Z
2023-06-03T06:12:10Z,42.805,6.029,13.3099,4.60114,2470.787,2023-6-03T08:14:23Z
2023-06-03T06:15:13Z,42.805,6.029,13.3087,4.60134,2470.74,2023-6-03T08:17:26Z
2023-06-03T06:18:16Z,42.805,6.029,13.3089,4.60129,2470.754,2023-6-03T08:20:29Z
2023-06-03T06:21:19Z,42.805,6.029,13.3061,4.60115,2470.8,2023-6-03T08:23:32Z
2023-06-03T06:24:22Z,42.805,6.029,13.3084,4.60184,2470.8,2023-6-03T08:26:35Z
2023-06-03T06:27:25Z,42.805,6.029,13.3081,4.60114,2470.777,2023-6-03T08:29:38Z
2023-06-03T06:30:26Z,42.805,6.029,13.3087,4.60128,2470.763,2023-6-03T08:32:39Z
2023-06-03T06:33:29Z,42.805,6.029,13.3089,4.60117,2470.777,2023-6-03T08:35:42Z
2023-06-03T06:36:32Z,42.805,6.029,13.3089,4.60131,2470.74,2023-6-03T08:38:46Z
2023-06-03T06:39:36Z,42.805,6.029,13.3070,4.60148,2470.787,2023-6-03T08:41:49Z
2023-06-03T06:42:39Z,42.805,6.029,13.3093,4.60138,2470.74,2023-6-03T08:44:52Z
2023-06-03T06:45:42Z,42.805,6.029,13.3087,4.60114,2470.824,2023-6-03T08:47:55Z
2023-06-03T06:48:45Z,42.805,6.029,13.3076,4.60105,2470.777,2023-6-03T08:50:58Z
2023-06-03T06:51:48Z,42.805,6.029,13.3074,4.60117,2470.777,2023-6-03T08:54:01Z
2023-06-03T06:54:51Z,42.805,6.029,13.3075,4.60149,2470.777,2023-6-03T08:57:04Z
2023-06-03T06:57:54Z,42.805,6.029,13.3058,4.60150,2470.74,2023-6-03T09:00:07Z
2023-06-03T07:00:57Z,42.805,6.029,13.3082,4.60128,2470.763,2023-6-03T09:03:10Z
2023-06-03T07:04:00Z,42.805,6.029,13.3113,4.60128,2470.777,2023-6-03T09:06:13Z
2023-06-03T07:07:03Z,42.805,6.029,13.3101,4.60133,2470.8,2023-6-03T09:09:16Z
2023-06-03T07:10:06Z,42.805,6.029,13.3100,4.60120,2470.754,2023-6-03T09:12:19Z
2023-06-03T07:13:09Z,42.805,6.029,13.3089,4.60122,2470.787,2023-6-03T09:15:22Z
2023-06-03T07:16:12Z,42.805,6.029,13.3113,4.60114,2470.777,2023-6-03T09:18:26Z
2023-06-03T07:19:16Z,42.805,6.029,13.3093,4.60125,2470.763,2023-6-03T09:21:29Z
2023-06-03T07:22:19Z,42.805,6.029,13.3094,4.60127,2470.8,2023-6-03T09:24:32Z
2023-06-03T07:25:22Z,42.805,6.029,13.3081,4.60171,2470.74,2023-6-03T09:27:35Z
2023-06-03T07:28:25Z,42.805,6.029,13.3092,4.60123,2470.787,2023-6-03T09:30:38Z
2023-06-03T07:31:28Z,42.805,6.029,13.3070,4.60132,2470.74,2023-6-03T09:33:41Z
2023-06-03T07:34:31Z,42.805,6.029,13.3078,4.60129,2470.777,2023-6-03T09:36:44Z
2023-06-03T07:37:34Z,42.805,6.029,13.3087,4.60119,2470.763,2023-6-03T09:39:47Z
2023-06-03T07:40:37Z,42.805,6.029,13.3098,4.60114,2470.73,2023-6-03T09:42:50Z
2023-06-03T07:43:40Z,42.805,6.029,13.3106,4.60127,2470.763,2023-6-03T09:45:53Z
2023-06-03T07:46:43Z,42.805,6.029,13.3073,4.60139,2470.73,2023-6-03T09:48:56Z
2023-06-03T07:49:46Z,42.805,6.029,13.3070,4.60140,2470.754,2023-6-03T09:51:59Z
2023-06-03T07:52:49Z,42.805,6.029,13.3069,4.60109,2470.777,2023-6-03T09:55:03Z
2023-06-03T07:55:53Z,42.805,6.029,13.3087,4.60107,2470.754,2023-6-03T09:58:06Z
2023-06-03T07:58:56Z,42.805,6.029,13.3074,4.60102,2470.74,2023-6-03T10:01:09Z
2023-06-03T08:01:59Z,42.805,6.029,13.3089,4.60112,2470.73,2023-6-03T10:04:12Z
2023-06-03T08:05:02Z,42.805,6.029,13.3076,4.60117,2470.717,2023-6-03T10:07:15Z
2023-06-03T08:08:05Z,42.805,6.029,13.3070,4.60116,2470.74,2023-6-03T10:10:18Z
2023-06-03T08:11:08Z,42.805,6.029,13.3068,4.60110,2470.717,2023-6-03T10:13:21Z
2023-06-03T08:14:11Z,42.805,6.029,13.3068,4.60125,2470.717,2023-6-03T10:16:24Z
2023-06-03T08:17:14Z,42.805,6.029,13.3058,4.60155,2470.717,2023-6-03T10:19:27Z
2023-06-03T08:20:17Z,42.805,6.029,13.3060,4.60138,2470.754,2023-6-03T10:22:30Z
2023-06-03T08:23:20Z,42.805,6.029,13.3061,4.60139,2470.754,2023-6-03T10:25:33Z
2023-06-03T08:26:23Z,42.805,6.029,13.3070,4.60137,2470.693,2023-6-03T10:28:36Z
2023-06-03T08:29:26Z,42.805,6.029,13.3060,4.60152,2470.73,2023-6-03T10:31:40Z
2023-06-03T08:32:30Z,42.805,6.029,13.3071,4.60115,2470.73,2023-6-03T10:34:43Z
2023-06-03T08:35:33Z,42.805,6.029,13.3089,4.60113,2470.73,2023-6-03T10:37:46Z
2023-06-03T08:38:36Z,42.805,6.029,13.3060,4.60114,2470.693,2023-6-03T10:40:49Z
2023-06-03T08:41:39Z,42.805,6.029,13.3078,4.60125,2470.693,2023-6-03T10:43:52Z
2023-06-03T08:44:42Z,42.805,6.029,13.3080,4.60148,2470.73,2023-6-03T10:46:55Z
2023-06-03T08:47:45Z,42.805,6.029,13.3096,4.60119,2470.684,2023-6-03T10:49:58Z
2023-06-03T08:50:48Z,42.805,6.029,13.3091,4.60113,2470.73,2023-6-03T10:53:01Z
2023-06-03T08:53:51Z,42.805,6.029,13.3084,4.60110,2470.717,2023-6-03T10:56:04Z
2023-06-03T08:56:54Z,42.805,6.029,13.3106,4.60112,2470.73,2023-6-03T10:59:07Z
2023-06-03T08:59:57Z,42.805,6.029,13.3106,4.60116,2470.74,2023-6-03T11:02:10Z
2023-06-03T09:03:00Z,42.805,6.029,13.3075,4.60158,2470.693,2023-6-03T11:05:13Z
2023-06-03T09:06:03Z,42.805,6.029,13.3076,4.60113,2470.693,2023-6-03T11:08:17Z
2023-06-03T09:09:07Z,42.805,6.029,13.3069,4.60155,2470.693,2023-6-03T11:11:20Z
2023-06-03T09:12:10Z,42.805,6.029,13.3093,4.60134,2470.707,2023-6-03T11:14:23Z
2023-06-03T09:15:13Z,42.805,6.029,13.3085,4.60125,2470.693,2023-6-03T11:17:26Z
2023-06-03T09:18:16Z,42.805,6.029,13.3073,4.60119,2470.707,2023-6-03T11:20:29Z
2023-06-03T09:21:19Z,42.805,6.029,13.3071,4.60113,2470.67,2023-6-03T11:23:32Z
2023-06-03T09:24:22Z,42.805,6.029,13.3098,4.60133,2470.693,2023-6-03T11:26:35Z
2023-06-03T09:27:25Z,42.805,6.029,13.3051,4.60141,2470.661,2023-6-03T11:29:38Z
2023-06-03T09:30:28Z,42.805,6.029,13.3071,4.60102,2470.707,2023-6-03T11:32:41Z
2023-06-03T09:33:31Z,42.805,6.029,13.3069,4.60110,2470.67,2023-6-03T11:35:44Z
2023-06-03T09:36:34Z,42.805,6.029,13.3073,4.60114,2470.684,2023-6-03T11:38:47Z
2023-06-03T09:39:37Z,42.805,6.029,13.3073,4.60158,2470.684,2023-6-03T11:41:50Z
2023-06-03T09:42:40Z,42.805,6.029,13.3057,4.60108,2470.684,2023-6-03T11:44:54Z
2023-06-03T09:45:44Z,42.805,6.029,13.3074,4.60114,2470.67,2023-6-03T11:47:57Z
2023-06-03T09:48:47Z,42.805,6.029,13.3090,4.60103,2470.717,2023-6-03T11:51:00Z
2023-06-03T09:51:50Z,42.805,6.029,13.3085,4.60103,2470.67,2023-6-03T11:54:03Z
2023-06-03T09:54:53Z,42.805,6.029,13.3073,4.60120,2470.67,2023-6-03T11:57:06Z
2023-06-03T09:57:56Z,42.805,6.029,13.3042,4.60150,2470.67,2023-6-03T12:00:09Z
2023-06-03T10:00:59Z,42.805,6.029,13.3069,4.60126,2470.67,2023-6-03T12:03:12Z
2023-06-03T10:04:02Z,42.805,6.029,13.3056,4.60133,2470.646,2023-6-03T12:06:15Z
2023-06-03T10:07:05Z,42.805,6.029,13.3063,4.60108,2470.707,2023-6-03T12:09:18Z
2023-06-03T10:10:08Z,42.805,6.029,13.3060,4.60102,2470.684,2023-6-03T12:12:21Z
2023-06-03T10:13:11Z,42.805,6.029,13.3048,4.60116,2470.646,2023-6-03T12:15:24Z
2023-06-03T10:16:14Z,42.805,6.029,13.3065,4.60116,2470.661,2023-6-03T12:18:27Z
2023-06-03T10:19:17Z,42.805,6.029,13.3099,4.60104,2470.684,2023-6-03T12:21:31Z
2023-06-03T10:22:21Z,42.805,6.029,13.3070,4.60102,2470.624,2023-6-03T12:24:34Z
2023-06-03T10:25:24Z,42.805,6.029,13.3053,4.60102,2470.637,2023-6-03T12:27:37Z
2023-06-03T10:28:27Z,42.805,6.029,13.3057,4.60112,2470.661,2023-6-03T12:30:40Z
2023-06-03T10:31:30Z,42.805,6.029,13.3074,4.60110,2470.661,2023-6-03T12:33:43Z
2023-06-03T10:34:33Z,42.805,6.029,13.3073,4.60111,2470.646,2023-6-03T12:36:46Z
2023-06-03T10:37:36Z,42.805,6.029,13.3070,4.60116,2470.624,2023-6-03T12:39:49Z
2023-06-03T10:40:39Z,42.805,6.029,13.3058,4.60122,2470.624,2023-6-03T12:42:52Z
2023-06-03T10:43:42Z,42.805,6.029,13.3082,4.60116,2470.661,2023-6-03T12:45:55Z
2023-06-03T10:46:45Z,42.805,6.029,13.3093,4.60163,2470.624,2023-6-03T12:48:58Z
2023-06-03T10:49:48Z,42.805,6.029,13.3064,4.60126,2470.624,2023-6-03T12:52:01Z
2023-06-03T10:52:51Z,42.805,6.029,13.3096,4.60107,2470.624,2023-6-03T12:55:04Z
2023-06-03T10:55:54Z,42.805,6.029,13.3084,4.60112,2470.646,2023-6-03T12:58:08Z
2023-06-03T10:58:58Z,42.805,6.029,13.3061,4.60105,2470.684,2023-6-03T13:01:11Z
2023-06-03T11:02:01Z,42.805,6.029,13.3060,4.60121,2470.624,2023-6-03T13:04:14Z
2023-06-03T11:05:04Z,42.805,6.029,13.3073,4.60106,2470.661,2023-6-03T13:07:17Z
2023-06-03T11:08:07Z,42.805,6.029,13.3076,4.60125,2470.6,2023-6-03T13:10:20Z
2023-06-03T11:11:10Z,42.805,6.029,13.3063,4.60110,2470.614,2023-6-03T13:13:23Z
2023-06-03T11:14:13Z,42.805,6.029,13.3067,4.60097,2470.6,2023-6-03T13:16:26Z
2023-06-03T11:17:16Z,42.805,6.029,13.3073,4.60101,2470.646,2023-6-03T13:19:29Z
2023-06-03T11:20:19Z,42.805,6.029,13.3074,4.60129,2470.614,2023-6-03T13:22:32Z
2023-06-03T11:23:22Z,42.805,6.029,13.3069,4.60112,2470.624,2023-6-03T13:25:35Z
2023-06-03T11:26:25Z,42.805,6.029,13.3061,4.60130,2470.624,2023-6-03T13:28:38Z
2023-06-03T11:29:28Z,42.805,6.029,13.3056,4.60142,2470.577,2023-6-03T13:31:41Z
2023-06-03T11:32:31Z,42.805,6.029,13.3076,4.60127,2470.637,2023-6-03T13:34:45Z
2023-06-03T11:35:35Z,42.805,6.029,13.3076,4.60116,2470.614,2023-6-03T13:37:48Z
2023-06-03T11:38:38Z,42.805,6.029,13.3074,4.60118,2470.6,2023-6-03T13:40:51Z
2023-06-03T11:41:41Z,42.805,6.029,13.3070,4.60113,2470.614,2023-6-03T13:43:54Z
2023-06-03T11:44:44Z,42.805,6.029,13.3053,4.60122,2470.624,2023-6-03T13:46:57Z
2023-06-03T11:47:47Z,42.805,6.029,13.3063,4.60110,2470.624,2023-6-03T13:50:00Z
2023-06-03T11:50:50Z,42.805,6.029,13.3078,4.60122,2470.624,2023-6-03T13:53:03Z
2023-06-03T11:53:53Z,42.805,6.029,13.3069,4.60122,2470.577,2023-6-03T13:56:06Z
2023-06-03T11:56:56Z,42.805,6.029,13.3075,4.60127,2470.614,2023-6-03T13:59:09Z
2023-06-03T11:59:59Z,42.805,6.029,13.3080,4.60121,2470.591,2023-6-03T14:02:12Z
2023-06-03T12:03:02Z,42.805,6.029,13.3081,4.60119,2470.577,2023-6-03T14:05:15Z
2023-06-03T12:06:05Z,42.805,6.029,13.3078,4.60112,2470.614,2023-6-03T14:08:18Z
2023-06-03T12:09:08Z,42.805,6.029,13.3081,4.60108,2470.6,2023-6-03T14:11:22Z
2023-06-03T12:12:12Z,42.805,6.029,13.3082,4.60108,2470.6,2023-6-03T14:14:25Z
2023-06-03T12:15:15Z,42.805,6.029,13.3070,4.60112,2470.6,2023-6-03T14:17:28Z
2023-06-03T12:18:18Z,42.805,6.029,13.3082,4.60124,2470.577,2023-6-03T14:20:31Z
2023-06-03T12:21:21Z,42.805,6.029,13.3077,4.60112,2470.553,2023-6-03T14:23:34Z
2023-06-03T12:24:24Z,42.805,6.029,13.3080,4.60110,2470.577,2023-6-03T14:26:37Z
2023-06-03T12:27:27Z,42.805,6.029,13.3094,4.60130,2470.6,2023-6-03T14:29:40Z
2023-06-03T12:30:32Z,42.805,6.029,13.3089,4.60130,2470.614,2023-6-03T14:32:45Z
2023-06-03T12:33:35Z,42.805,6.029,13.3079,4.60110,2470.614,2023-6-03T14:35:48Z
2023-06-03T12:36:38Z,42.805,6.029,13.3082,4.60111,2470.591,2023-6-03T14:38:51Z
2023-06-03T12:39:41Z,42.805,6.029,13.3086,4.60115,2470.6,2023-6-03T14:41:54Z
2023-06-03T12:42:44Z,42.805,6.029,13.3093,4.60109,2470.577,2023-6-03T14:44:57Z
2023-06-03T12:45:47Z,42.805,6.029,13.3091,4.60104,2470.577,2023-6-03T14:48:00Z
2023-06-03T12:48:50Z,42.805,6.029,13.3097,4.60117,2470.614,2023-6-03T14:51:03Z
2023-06-03T12:51:53Z,42.805,6.029,13.3081,4.60118,2470.591,2023-6-03T14:54:06Z
2023-06-03T12:54:56Z,42.805,6.029,13.3083,4.60113,2470.553,2023-6-03T14:57:09Z
2023-06-03T12:57:59Z,42.805,6.029,13.3084,4.60116,2470.6,2023-6-03T15:00:12Z
2023-06-03T13:01:02Z,42.805,6.029,13.3084,4.60120,2470.577,2023-6-03T15:03:16Z
2023-06-03T13:04:05Z,42.805,6.029,13.3093,4.60132,2470.614,2023-6-03T15:06:19Z
2023-06-03T13:07:09Z,42.805,6.029,13.3084,4.60110,2470.577,2023-6-03T15:09:22Z
2023-06-03T13:10:12Z,42.805,6.029,13.3089,4.60122,2470.6,2023-6-03T15:12:25Z
2023-06-03T13:13:15Z,42.805,6.029,13.3105,4.60132,2470.591,2023-6-03T15:15:28Z
2023-06-03T13:16:18Z,42.805,6.029,13.3091,4.60122,2470.577,2023-6-03T15:18:31Z
2023-06-03T13:19:21Z,42.805,6.029,13.3102,4.60137,2470.6,2023-6-03T15:21:34Z
2023-06-03T13:22:24Z,42.805,6.029,13.3110,4.60158,2470.591,2023-6-03T15:24:37Z
2023-06-03T13:25:27Z,42.805,6.029,13.3101,4.60117,2470.553,2023-6-03T15:27:40Z
2023-06-03T13:28:30Z,42.805,6.029,13.3071,4.60117,2470.614,2023-6-03T15:30:43Z
2023-06-03T13:31:33Z,42.805,6.029,13.3061,4.60191,2470.577,2023-6-03T15:33:46Z
2023-06-03T13:34:36Z,42.805,6.029,13.3108,4.60117,2470.591,2023-6-03T15:36:49Z
2023-06-03T13:37:39Z,42.805,6.029,13.3089,4.60114,2470.553,2023-6-03T15:39:53Z
2023-06-03T13:40:42Z,42.805,6.029,13.3080,4.60125,2470.591,2023-6-03T15:42:56Z
2023-06-03T13:43:46Z,42.805,6.029,13.3083,4.60117,2470.591,2023-6-03T15:45:59Z
2023-06-03T13:46:49Z,42.805,6.029,13.3091,4.60120,2470.567,2023-6-03T15:49:02Z
2023-06-03T13:49:52Z,42.805,6.029,13.3074,4.60140,2470.614,2023-6-03T15:52:05Z
2023-06-03T13:52:55Z,42.805,6.029,13.3052,4.60119,2470.577,2023-6-03T15:55:08Z
2023-06-03T13:55:58Z,42.805,6.029,13.3060,4.60119,2470.577,2023-6-03T15:58:11Z
2023-06-03T13:59:01Z,42.805,6.029,13.3046,4.60127,2470.614,2023-6-03T16:01:14Z
2023-06-03T14:02:04Z,42.805,6.029,13.3034,4.60113,2470.567,2023-6-03T16:04:17Z
2023-06-03T14:05:07Z,42.805,6.029,13.3054,4.60168,2470.6,2023-6-03T16:07:20Z
2023-06-03T14:08:10Z,42.805,6.029,13.3061,4.60164,2470.6,2023-6-03T16:10:23Z
2023-06-03T14:11:13Z,42.805,6.029,13.3106,4.60194,2470.6,2023-6-03T16:13:26Z
2023-06-03T14:14:16Z,42.805,6.029,13.3042,4.60170,2470.6,2023-6-03T16:16:30Z
2023-06-03T14:17:19Z,42.805,6.029,13.3063,4.60157,2470.6,2023-6-03T16:19:33Z
2023-06-03T14:20:23Z,42.805,6.029,13.3057,4.60166,2470.614,2023-6-03T16:22:36Z
2023-06-03T14:23:26Z,42.805,6.029,13.3025,4.60203,2470.6,2023-6-03T16:25:39Z
2023-06-03T14:26:29Z,42.805,6.029,13.3022,4.60132,2470.6,2023-6-03T16:28:42Z
2023-06-03T14:29:32Z,42.805,6.029,13.3025,4.60181,2470.624,2023-6-03T16:31:45Z
2023-06-03T14:32:34Z,42.805,6.029,13.3024,4.60162,2470.637,2023-6-03T16:34:48Z
2023-06-03T14:35:38Z,42.805,6.029,13.3029,4.60127,2470.614,2023-6-03T16:37:51Z
2023-06-03T14:38:41Z,42.805,6.029,13.3021,4.60203,2470.6,2023-6-03T16:40:54Z
2023-06-03T14:41:44Z,42.805,6.029,13.3023,4.60130,2470.624,2023-6-03T16:43:57Z
2023-06-03T14:44:47Z,42.805,6.029,13.3021,4.60142,2470.67,2023-6-03T16:47:00Z
2023-06-03T14:47:50Z,42.805,6.029,13.3018,4.60122,2470.637,2023-6-03T16:50:03Z
2023-06-03T14:50:53Z,42.805,6.029,13.3021,4.60116,2470.624,2023-6-03T16:53:06Z
2023-06-03T14:53:56Z,42.805,6.029,13.3021,4.60104,2470.646,2023-6-03T16:56:09Z
2023-06-03T14:56:59Z,42.805,6.029,13.3019,4.60132,2470.624,2023-6-03T16:59:12Z
2023-06-03T15:00:02Z,42.805,6.029,13.3023,4.60132,2470.637,2023-6-03T17:02:15Z
2023-06-03T15:03:05Z,42.805,6.029,13.3024,4.60119,2470.661,2023-6-03T17:05:18Z
2023-06-03T15:06:08Z,42.805,6.029,13.3021,4.60131,2470.661,2023-6-03T17:08:21Z
2023-06-03T15:09:11Z,42.805,6.029,13.3021,4.60124,2470.646,2023-6-03T17:11:25Z
2023-06-03T15:12:15Z,42.805,6.029,13.3019,4.60110,2470.67,2023-6-03T17:14:28Z
2023-06-03T15:15:18Z,42.805,6.029,13.3017,4.60102,2470.67,2023-6-03T17:17:31Z